owner,sensor,date,latitude,longitude,vertical_datum,sea_water_temperature,qcFlag 
DISL,ioos:station:DISL:MBLA:1,2008-04-01T00:02:00Z,30.4367,-88.0117,0.5,19.56,2 
DISL,ioos:station:DISL:MBLA:1,2008-04-01T00:05:00Z,30.4367,-88.0117,0.5,19.53,2 
DISL,ioos:station:DISL:MBLA:1,2008-04-01T00:08:00Z,30.4367,-88.0117,0.5,19.52,2 
DISL,ioos:station:DISL:MBLA:1,2008-04-01T00:10:00Z,30.4367,-88.0117,0.5,19.51,2 
DISL,ioos:station:DISL:MBLA:1,2008-04-01T00:13:00Z,30.4367,-88.0117,0.5,19.51,2 
DISL,ioos:station:DISL:MBLA:1,2008-04-01T00:15:00Z,30.4367,-88.0117,0.5,19.5,2 
DISL,ioos:station:DISL:MBLA:1,2008-04-01T01:03:00Z,30.4367,-88.0117,0.5,19.6,2 
DISL,ioos:station:DISL:MBLA:1,2008-04-01T01:05:00Z,30.4367,-88.0117,0.5,19.56,2 
DISL,ioos:station:DISL:MBLA:1,2008-04-01T01:07:00Z,30.4367,-88.0117,0.5,19.54,2 
DISL,ioos:station:DISL:MBLA:1,2008-04-01T01:10:00Z,30.4367,-88.0117,0.5,19.51,2 
DISL,ioos:station:DISL:MBLA:1,2008-04-01T01:13:00Z,30.4367,-88.0117,0.5,19.5,2 
DISL,ioos:station:DISL:MBLA:1,2008-04-01T01:15:00Z,30.4367,-88.0117,0.5,19.48,2 
DISL,ioos:station:DISL:MBLA:1,2008-04-01T02:03:00Z,30.4367,-88.0117,0.5,19.54,2 
DISL,ioos:station:DISL:MBLA:1,2008-04-01T02:05:00Z,30.4367,-88.0117,0.5,19.52,2 
DISL,ioos:station:DISL:MBLA:1,2008-04-01T02:07:00Z,30.4367,-88.0117,0.5,19.47,2 
DISL,ioos:station:DISL:MBLA:1,2008-04-01T02:10:00Z,30.4367,-88.0117,0.5,19.45,2 
DISL,ioos:station:DISL:MBLA:1,2008-04-01T02:12:00Z,30.4367,-88.0117,0.5,19.45,2 
DISL,ioos:station:DISL:MBLA:1,2008-04-01T02:15:00Z,30.4367,-88.0117,0.5,19.44,2 
DISL,ioos:station:DISL:MBLA:1,2008-04-01T03:03:00Z,30.4367,-88.0117,0.5,19.5,2 
DISL,ioos:station:DISL:MBLA:1,2008-04-01T03:05:00Z,30.4367,-88.0117,0.5,19.48,2 
DISL,ioos:station:DISL:MBLA:1,2008-04-01T03:07:00Z,30.4367,-88.0117,0.5,19.46,2 
DISL,ioos:station:DISL:MBLA:1,2008-04-01T03:10:00Z,30.4367,-88.0117,0.5,19.44,2 
DISL,ioos:station:DISL:MBLA:1,2008-04-01T03:13:00Z,30.4367,-88.0117,0.5,19.41,2 
DISL,ioos:station:DISL:MBLA:1,2008-04-01T03:15:00Z,30.4367,-88.0117,0.5,19.4,2 
DISL,ioos:station:DISL:MBLA:1,2008-04-01T04:03:00Z,30.4367,-88.0117,0.5,19.48,2 
DISL,ioos:station:DISL:MBLA:1,2008-04-01T04:05:00Z,30.4367,-88.0117,0.5,19.45,2 
DISL,ioos:station:DISL:MBLA:1,2008-04-01T04:07:00Z,30.4367,-88.0117,0.5,19.42,2 
DISL,ioos:station:DISL:MBLA:1,2008-04-01T04:10:00Z,30.4367,-88.0117,0.5,19.38,2 
DISL,ioos:station:DISL:MBLA:1,2008-04-01T04:13:00Z,30.4367,-88.0117,0.5,19.38,2 
DISL,ioos:station:DISL:MBLA:1,2008-04-01T04:15:00Z,30.4367,-88.0117,0.5,19.37,2 
DISL,ioos:station:DISL:MBLA:1,2008-04-01T05:03:00Z,30.4367,-88.0117,0.5,19.42,2 
DISL,ioos:station:DISL:MBLA:1,2008-04-01T05:05:00Z,30.4367,-88.0117,0.5,19.38,2 
DISL,ioos:station:DISL:MBLA:1,2008-04-01T05:07:00Z,30.4367,-88.0117,0.5,19.37,2 
DISL,ioos:station:DISL:MBLA:1,2008-04-01T05:10:00Z,30.4367,-88.0117,0.5,19.38,2 
DISL,ioos:station:DISL:MBLA:1,2008-04-01T05:12:00Z,30.4367,-88.0117,0.5,19.37,2 
DISL,ioos:station:DISL:MBLA:1,2008-04-01T05:15:00Z,30.4367,-88.0117,0.5,19.35,2 
DISL,ioos:station:DISL:MBLA:1,2008-04-01T06:03:00Z,30.4367,-88.0117,0.5,19.4,2 
DISL,ioos:station:DISL:MBLA:1,2008-04-01T06:05:00Z,30.4367,-88.0117,0.5,19.39,2 
DISL,ioos:station:DISL:MBLA:1,2008-04-01T06:07:00Z,30.4367,-88.0117,0.5,19.36,2 
DISL,ioos:station:DISL:MBLA:1,2008-04-01T06:10:00Z,30.4367,-88.0117,0.5,19.35,2 
DISL,ioos:station:DISL:MBLA:1,2008-04-01T06:12:00Z,30.4367,-88.0117,0.5,19.35,2 
DISL,ioos:station:DISL:MBLA:1,2008-04-01T06:15:00Z,30.4367,-88.0117,0.5,19.34,2 
DISL,ioos:station:DISL:MBLA:1,2008-04-01T07:03:00Z,30.4367,-88.0117,0.5,19.31,2 
DISL,ioos:station:DISL:MBLA:1,2008-04-01T07:05:00Z,30.4367,-88.0117,0.5,19.29,2 
DISL,ioos:station:DISL:MBLA:1,2008-04-01T07:07:00Z,30.4367,-88.0117,0.5,19.3,2 
DISL,ioos:station:DISL:MBLA:1,2008-04-01T07:10:00Z,30.4367,-88.0117,0.5,19.29,2 
DISL,ioos:station:DISL:MBLA:1,2008-04-01T07:12:00Z,30.4367,-88.0117,0.5,19.27,2 
DISL,ioos:station:DISL:MBLA:1,2008-04-01T07:15:00Z,30.4367,-88.0117,0.5,19.27,2 
DISL,ioos:station:DISL:MBLA:1,2008-04-01T08:02:00Z,30.4367,-88.0117,0.5,19.48,2 
DISL,ioos:station:DISL:MBLA:1,2008-04-01T08:05:00Z,30.4367,-88.0117,0.5,19.49,2 
DISL,ioos:station:DISL:MBLA:1,2008-04-01T08:08:00Z,30.4367,-88.0117,0.5,19.43,2 
DISL,ioos:station:DISL:MBLA:1,2008-04-01T08:10:00Z,30.4367,-88.0117,0.5,19.41,2 
DISL,ioos:station:DISL:MBLA:1,2008-04-01T08:13:00Z,30.4367,-88.0117,0.5,19.42,2 
DISL,ioos:station:DISL:MBLA:1,2008-04-01T08:15:00Z,30.4367,-88.0117,0.5,19.41,2 
DISL,ioos:station:DISL:MBLA:1,2008-04-01T09:02:00Z,30.4367,-88.0117,0.5,19.48,2 
DISL,ioos:station:DISL:MBLA:1,2008-04-01T09:05:00Z,30.4367,-88.0117,0.5,19.47,2 
DISL,ioos:station:DISL:MBLA:1,2008-04-01T09:07:00Z,30.4367,-88.0117,0.5,19.38,2 
DISL,ioos:station:DISL:MBLA:1,2008-04-01T09:10:00Z,30.4367,-88.0117,0.5,19.33,2 
DISL,ioos:station:DISL:MBLA:1,2008-04-01T09:12:00Z,30.4367,-88.0117,0.5,19.33,2 
DISL,ioos:station:DISL:MBLA:1,2008-04-01T09:15:00Z,30.4367,-88.0117,0.5,19.34,2 
DISL,ioos:station:DISL:MBLA:1,2008-04-01T10:03:00Z,30.4367,-88.0117,0.5,19.45,2 
DISL,ioos:station:DISL:MBLA:1,2008-04-01T10:05:00Z,30.4367,-88.0117,0.5,19.38,2 
DISL,ioos:station:DISL:MBLA:1,2008-04-01T10:07:00Z,30.4367,-88.0117,0.5,19.33,2 
DISL,ioos:station:DISL:MBLA:1,2008-04-01T10:10:00Z,30.4367,-88.0117,0.5,19.28,2 
DISL,ioos:station:DISL:MBLA:1,2008-04-01T10:12:00Z,30.4367,-88.0117,0.5,19.27,2 
DISL,ioos:station:DISL:MBLA:1,2008-04-01T10:15:00Z,30.4367,-88.0117,0.5,19.26,2 
DISL,ioos:station:DISL:MBLA:1,2008-04-01T11:03:00Z,30.4367,-88.0117,0.5,19.37,2 
DISL,ioos:station:DISL:MBLA:1,2008-04-01T11:05:00Z,30.4367,-88.0117,0.5,19.28,2 
DISL,ioos:station:DISL:MBLA:1,2008-04-01T11:07:00Z,30.4367,-88.0117,0.5,19.22,2 
DISL,ioos:station:DISL:MBLA:1,2008-04-01T11:10:00Z,30.4367,-88.0117,0.5,19.19,2 
DISL,ioos:station:DISL:MBLA:1,2008-04-01T11:12:00Z,30.4367,-88.0117,0.5,19.19,2 
DISL,ioos:station:DISL:MBLA:1,2008-04-01T11:15:00Z,30.4367,-88.0117,0.5,19.2,2 
DISL,ioos:station:DISL:MBLA:1,2008-04-01T12:03:00Z,30.4367,-88.0117,0.5,19.38,2 
DISL,ioos:station:DISL:MBLA:1,2008-04-01T12:05:00Z,30.4367,-88.0117,0.5,19.38,2 
DISL,ioos:station:DISL:MBLA:1,2008-04-01T12:08:00Z,30.4367,-88.0117,0.5,19.32,2 
DISL,ioos:station:DISL:MBLA:1,2008-04-01T12:10:00Z,30.4367,-88.0117,0.5,19.22,2 
DISL,ioos:station:DISL:MBLA:1,2008-04-01T12:13:00Z,30.4367,-88.0117,0.5,19.2,2 
DISL,ioos:station:DISL:MBLA:1,2008-04-01T12:15:00Z,30.4367,-88.0117,0.5,19.2,2 
DISL,ioos:station:DISL:MBLA:1,2008-04-01T13:02:00Z,30.4367,-88.0117,0.5,19.31,2 
DISL,ioos:station:DISL:MBLA:1,2008-04-01T13:05:00Z,30.4367,-88.0117,0.5,19.38,2 
DISL,ioos:station:DISL:MBLA:1,2008-04-01T13:07:00Z,30.4367,-88.0117,0.5,19.29,2 
DISL,ioos:station:DISL:MBLA:1,2008-04-01T13:10:00Z,30.4367,-88.0117,0.5,19.25,2 
DISL,ioos:station:DISL:MBLA:1,2008-04-01T13:12:00Z,30.4367,-88.0117,0.5,19.25,2 
DISL,ioos:station:DISL:MBLA:1,2008-04-01T13:15:00Z,30.4367,-88.0117,0.5,19.27,2 
DISL,ioos:station:DISL:MBLA:1,2008-04-01T14:03:00Z,30.4367,-88.0117,0.5,19.34,2 
DISL,ioos:station:DISL:MBLA:1,2008-04-01T14:05:00Z,30.4367,-88.0117,0.5,19.33,2 
DISL,ioos:station:DISL:MBLA:1,2008-04-01T14:08:00Z,30.4367,-88.0117,0.5,19.33,2 
DISL,ioos:station:DISL:MBLA:1,2008-04-01T14:10:00Z,30.4367,-88.0117,0.5,19.34,2 
DISL,ioos:station:DISL:MBLA:1,2008-04-01T14:13:00Z,30.4367,-88.0117,0.5,19.34,2 
DISL,ioos:station:DISL:MBLA:1,2008-04-01T14:15:00Z,30.4367,-88.0117,0.5,19.37,2 
DISL,ioos:station:DISL:MBLA:1,2008-04-01T15:02:00Z,30.4367,-88.0117,0.5,19.43,2 
DISL,ioos:station:DISL:MBLA:1,2008-04-01T15:05:00Z,30.4367,-88.0117,0.5,19.41,2 
DISL,ioos:station:DISL:MBLA:1,2008-04-01T15:08:00Z,30.4367,-88.0117,0.5,19.43,2 
DISL,ioos:station:DISL:MBLA:1,2008-04-01T15:11:00Z,30.4367,-88.0117,0.5,19.52,2 
DISL,ioos:station:DISL:MBLA:1,2008-04-01T15:13:00Z,30.4367,-88.0117,0.5,19.57,2 
DISL,ioos:station:DISL:MBLA:1,2008-04-01T15:15:00Z,30.4367,-88.0117,0.5,19.62,2 
DISL,ioos:station:DISL:MBLA:1,2008-04-01T16:02:00Z,30.4367,-88.0117,0.5,19.37,2 
DISL,ioos:station:DISL:MBLA:1,2008-04-01T16:05:00Z,30.4367,-88.0117,0.5,19.36,2 
DISL,ioos:station:DISL:MBLA:1,2008-04-01T16:08:00Z,30.4367,-88.0117,0.5,19.47,2 
DISL,ioos:station:DISL:MBLA:1,2008-04-01T16:10:00Z,30.4367,-88.0117,0.5,19.65,2 
DISL,ioos:station:DISL:MBLA:1,2008-04-01T16:13:00Z,30.4367,-88.0117,0.5,19.7,2 
DISL,ioos:station:DISL:MBLA:1,2008-04-01T16:15:00Z,30.4367,-88.0117,0.5,19.81,2 
DISL,ioos:station:DISL:MBLA:1,2008-04-01T17:02:00Z,30.4367,-88.0117,0.5,19.51,2 
DISL,ioos:station:DISL:MBLA:1,2008-04-01T17:05:00Z,30.4367,-88.0117,0.5,19.6,2 
DISL,ioos:station:DISL:MBLA:1,2008-04-01T17:07:00Z,30.4367,-88.0117,0.5,19.76,2 
DISL,ioos:station:DISL:MBLA:1,2008-04-01T17:10:00Z,30.4367,-88.0117,0.5,19.8,2 
DISL,ioos:station:DISL:MBLA:1,2008-04-01T17:12:00Z,30.4367,-88.0117,0.5,19.93,2 
DISL,ioos:station:DISL:MBLA:1,2008-04-01T17:15:00Z,30.4367,-88.0117,0.5,20.11,2 
DISL,ioos:station:DISL:MBLA:1,2008-04-01T18:02:00Z,30.4367,-88.0117,0.5,19.61,2 
DISL,ioos:station:DISL:MBLA:1,2008-04-01T18:05:00Z,30.4367,-88.0117,0.5,19.73,2 
DISL,ioos:station:DISL:MBLA:1,2008-04-01T18:08:00Z,30.4367,-88.0117,0.5,19.69,2 
DISL,ioos:station:DISL:MBLA:1,2008-04-01T18:10:00Z,30.4367,-88.0117,0.5,19.72,2 
DISL,ioos:station:DISL:MBLA:1,2008-04-01T18:13:00Z,30.4367,-88.0117,0.5,19.85,2 
DISL,ioos:station:DISL:MBLA:1,2008-04-01T18:16:00Z,30.4367,-88.0117,0.5,20.01,2 
DISL,ioos:station:DISL:MBLA:1,2008-04-01T19:02:00Z,30.4367,-88.0117,0.5,19.91,2 
DISL,ioos:station:DISL:MBLA:1,2008-04-01T19:05:00Z,30.4367,-88.0117,0.5,20.23,2 
DISL,ioos:station:DISL:MBLA:1,2008-04-01T19:07:00Z,30.4367,-88.0117,0.5,20.4,2 
DISL,ioos:station:DISL:MBLA:1,2008-04-01T19:10:00Z,30.4367,-88.0117,0.5,20.46,2 
DISL,ioos:station:DISL:MBLA:1,2008-04-01T19:13:00Z,30.4367,-88.0117,0.5,20.37,2 
DISL,ioos:station:DISL:MBLA:1,2008-04-01T19:15:00Z,30.4367,-88.0117,0.5,20.4,2 
DISL,ioos:station:DISL:MBLA:1,2008-04-01T20:03:00Z,30.4367,-88.0117,0.5,20.13,2 
DISL,ioos:station:DISL:MBLA:1,2008-04-01T20:05:00Z,30.4367,-88.0117,0.5,20.45,2 
DISL,ioos:station:DISL:MBLA:1,2008-04-01T20:07:00Z,30.4367,-88.0117,0.5,20.47,2 
DISL,ioos:station:DISL:MBLA:1,2008-04-01T20:10:00Z,30.4367,-88.0117,0.5,20.48,2 
DISL,ioos:station:DISL:MBLA:1,2008-04-01T20:12:00Z,30.4367,-88.0117,0.5,20.48,2 
DISL,ioos:station:DISL:MBLA:1,2008-04-01T20:15:00Z,30.4367,-88.0117,0.5,20.49,2 
DISL,ioos:station:DISL:MBLA:1,2008-04-01T21:03:00Z,30.4367,-88.0117,0.5,20.26,2 
DISL,ioos:station:DISL:MBLA:1,2008-04-01T21:05:00Z,30.4367,-88.0117,0.5,20.26,2 
DISL,ioos:station:DISL:MBLA:1,2008-04-01T21:08:00Z,30.4367,-88.0117,0.5,20.34,2 
DISL,ioos:station:DISL:MBLA:1,2008-04-01T21:10:00Z,30.4367,-88.0117,0.5,20.35,2 
DISL,ioos:station:DISL:MBLA:1,2008-04-01T21:13:00Z,30.4367,-88.0117,0.5,20.34,2 
DISL,ioos:station:DISL:MBLA:1,2008-04-01T21:15:00Z,30.4367,-88.0117,0.5,20.36,2 
DISL,ioos:station:DISL:MBLA:1,2008-04-01T22:03:00Z,30.4367,-88.0117,0.5,20.31,2 
DISL,ioos:station:DISL:MBLA:1,2008-04-01T22:05:00Z,30.4367,-88.0117,0.5,20.32,2 
DISL,ioos:station:DISL:MBLA:1,2008-04-01T22:08:00Z,30.4367,-88.0117,0.5,20.34,2 
DISL,ioos:station:DISL:MBLA:1,2008-04-01T22:10:00Z,30.4367,-88.0117,0.5,20.35,2 
DISL,ioos:station:DISL:MBLA:1,2008-04-01T22:13:00Z,30.4367,-88.0117,0.5,20.36,2 
DISL,ioos:station:DISL:MBLA:1,2008-04-01T22:15:00Z,30.4367,-88.0117,0.5,20.32,2 
DISL,ioos:station:DISL:MBLA:1,2008-04-01T23:02:00Z,30.4367,-88.0117,0.5,20.23,2 
DISL,ioos:station:DISL:MBLA:1,2008-04-01T23:05:00Z,30.4367,-88.0117,0.5,20.19,2 
DISL,ioos:station:DISL:MBLA:1,2008-04-01T23:07:00Z,30.4367,-88.0117,0.5,20.17,2 
DISL,ioos:station:DISL:MBLA:1,2008-04-01T23:11:00Z,30.4367,-88.0117,0.5,20.15,2 
DISL,ioos:station:DISL:MBLA:1,2008-04-01T23:13:00Z,30.4367,-88.0117,0.5,20.15,2 
DISL,ioos:station:DISL:MBLA:1,2008-04-01T23:15:00Z,30.4367,-88.0117,0.5,20.15,2 
DISL,ioos:station:DISL:MBLA:1,2008-04-02T00:02:00Z,30.4367,-88.0117,0.5,20.24,2 
DISL,ioos:station:DISL:MBLA:1,2008-04-02T00:05:00Z,30.4367,-88.0117,0.5,20.3,2 
DISL,ioos:station:DISL:MBLA:1,2008-04-02T00:07:00Z,30.4367,-88.0117,0.5,20.28,2 
DISL,ioos:station:DISL:MBLA:1,2008-04-02T00:10:00Z,30.4367,-88.0117,0.5,20.28,2 
DISL,ioos:station:DISL:MBLA:1,2008-04-02T00:12:00Z,30.4367,-88.0117,0.5,20.25,2 
DISL,ioos:station:DISL:MBLA:1,2008-04-02T00:15:00Z,30.4367,-88.0117,0.5,20.2,2 
DISL,ioos:station:DISL:MBLA:1,2008-04-02T01:03:00Z,30.4367,-88.0117,0.5,19.98,2 
DISL,ioos:station:DISL:MBLA:1,2008-04-02T01:05:00Z,30.4367,-88.0117,0.5,20.14,2 
DISL,ioos:station:DISL:MBLA:1,2008-04-02T01:07:00Z,30.4367,-88.0117,0.5,20.25,2 
DISL,ioos:station:DISL:MBLA:1,2008-04-02T01:10:00Z,30.4367,-88.0117,0.5,20.26,2 
DISL,ioos:station:DISL:MBLA:1,2008-04-02T01:12:00Z,30.4367,-88.0117,0.5,20.29,2 
DISL,ioos:station:DISL:MBLA:1,2008-04-02T01:15:00Z,30.4367,-88.0117,0.5,20.21,2 
DISL,ioos:station:DISL:MBLA:1,2008-04-02T02:03:00Z,30.4367,-88.0117,0.5,19.98,2 
DISL,ioos:station:DISL:MBLA:1,2008-04-02T02:05:00Z,30.4367,-88.0117,0.5,20.01,2 
DISL,ioos:station:DISL:MBLA:1,2008-04-02T02:07:00Z,30.4367,-88.0117,0.5,20.03,2 
DISL,ioos:station:DISL:MBLA:1,2008-04-02T02:10:00Z,30.4367,-88.0117,0.5,20.11,2 
DISL,ioos:station:DISL:MBLA:1,2008-04-02T02:13:00Z,30.4367,-88.0117,0.5,20.2,2 
DISL,ioos:station:DISL:MBLA:1,2008-04-02T02:15:00Z,30.4367,-88.0117,0.5,20.27,2 
DISL,ioos:station:DISL:MBLA:1,2008-04-02T03:03:00Z,30.4367,-88.0117,0.5,20.22,2 
DISL,ioos:station:DISL:MBLA:1,2008-04-02T03:05:00Z,30.4367,-88.0117,0.5,20.19,2 
DISL,ioos:station:DISL:MBLA:1,2008-04-02T03:07:00Z,30.4367,-88.0117,0.5,20.17,2 
DISL,ioos:station:DISL:MBLA:1,2008-04-02T03:10:00Z,30.4367,-88.0117,0.5,20.13,2 
DISL,ioos:station:DISL:MBLA:1,2008-04-02T03:12:00Z,30.4367,-88.0117,0.5,20.12,2 
DISL,ioos:station:DISL:MBLA:1,2008-04-02T03:15:00Z,30.4367,-88.0117,0.5,20.06,2 
DISL,ioos:station:DISL:MBLA:1,2008-04-02T04:03:00Z,30.4367,-88.0117,0.5,20.19,2 
DISL,ioos:station:DISL:MBLA:1,2008-04-02T04:05:00Z,30.4367,-88.0117,0.5,20.08,2 
DISL,ioos:station:DISL:MBLA:1,2008-04-02T04:07:00Z,30.4367,-88.0117,0.5,20.07,2 
DISL,ioos:station:DISL:MBLA:1,2008-04-02T04:10:00Z,30.4367,-88.0117,0.5,20.09,2 
DISL,ioos:station:DISL:MBLA:1,2008-04-02T04:12:00Z,30.4367,-88.0117,0.5,20.02,2 
DISL,ioos:station:DISL:MBLA:1,2008-04-02T04:15:00Z,30.4367,-88.0117,0.5,19.92,2 
DISL,ioos:station:DISL:MBLA:1,2008-04-02T05:03:00Z,30.4367,-88.0117,0.5,20.01,2 
DISL,ioos:station:DISL:MBLA:1,2008-04-02T05:05:00Z,30.4367,-88.0117,0.5,20.05,2 
DISL,ioos:station:DISL:MBLA:1,2008-04-02T05:07:00Z,30.4367,-88.0117,0.5,20.03,2 
DISL,ioos:station:DISL:MBLA:1,2008-04-02T05:10:00Z,30.4367,-88.0117,0.5,19.86,2 
DISL,ioos:station:DISL:MBLA:1,2008-04-02T05:12:00Z,30.4367,-88.0117,0.5,19.82,2 
DISL,ioos:station:DISL:MBLA:1,2008-04-02T05:15:00Z,30.4367,-88.0117,0.5,19.78,2 
DISL,ioos:station:DISL:MBLA:1,2008-04-02T06:03:00Z,30.4367,-88.0117,0.5,19.87,2 
DISL,ioos:station:DISL:MBLA:1,2008-04-02T06:05:00Z,30.4367,-88.0117,0.5,19.62,2 
DISL,ioos:station:DISL:MBLA:1,2008-04-02T06:07:00Z,30.4367,-88.0117,0.5,19.7,2 
DISL,ioos:station:DISL:MBLA:1,2008-04-02T06:10:00Z,30.4367,-88.0117,0.5,19.8,2 
DISL,ioos:station:DISL:MBLA:1,2008-04-02T06:12:00Z,30.4367,-88.0117,0.5,19.83,2 
DISL,ioos:station:DISL:MBLA:1,2008-04-02T06:15:00Z,30.4367,-88.0117,0.5,19.85,2 
DISL,ioos:station:DISL:MBLA:1,2008-04-02T07:03:00Z,30.4367,-88.0117,0.5,19.95,2 
DISL,ioos:station:DISL:MBLA:1,2008-04-02T07:05:00Z,30.4367,-88.0117,0.5,19.79,2 
DISL,ioos:station:DISL:MBLA:1,2008-04-02T07:07:00Z,30.4367,-88.0117,0.5,19.77,2 
DISL,ioos:station:DISL:MBLA:1,2008-04-02T07:10:00Z,30.4367,-88.0117,0.5,19.83,2 
DISL,ioos:station:DISL:MBLA:1,2008-04-02T07:12:00Z,30.4367,-88.0117,0.5,19.87,2 
DISL,ioos:station:DISL:MBLA:1,2008-04-02T07:15:00Z,30.4367,-88.0117,0.5,19.89,2 
DISL,ioos:station:DISL:MBLA:1,2008-04-02T08:03:00Z,30.4367,-88.0117,0.5,20.02,2 
DISL,ioos:station:DISL:MBLA:1,2008-04-02T08:05:00Z,30.4367,-88.0117,0.5,19.89,2 
DISL,ioos:station:DISL:MBLA:1,2008-04-02T08:07:00Z,30.4367,-88.0117,0.5,19.84,2 
DISL,ioos:station:DISL:MBLA:1,2008-04-02T08:10:00Z,30.4367,-88.0117,0.5,19.89,2 
DISL,ioos:station:DISL:MBLA:1,2008-04-02T08:12:00Z,30.4367,-88.0117,0.5,19.9,2 
DISL,ioos:station:DISL:MBLA:1,2008-04-02T08:15:00Z,30.4367,-88.0117,0.5,19.92,2 
DISL,ioos:station:DISL:MBLA:1,2008-04-02T09:03:00Z,30.4367,-88.0117,0.5,19.83,2 
DISL,ioos:station:DISL:MBLA:1,2008-04-02T09:05:00Z,30.4367,-88.0117,0.5,19.72,2 
DISL,ioos:station:DISL:MBLA:1,2008-04-02T09:07:00Z,30.4367,-88.0117,0.5,19.87,2 
DISL,ioos:station:DISL:MBLA:1,2008-04-02T09:10:00Z,30.4367,-88.0117,0.5,19.92,2 
DISL,ioos:station:DISL:MBLA:1,2008-04-02T09:12:00Z,30.4367,-88.0117,0.5,19.92,2 
DISL,ioos:station:DISL:MBLA:1,2008-04-02T09:15:00Z,30.4367,-88.0117,0.5,19.93,2 
DISL,ioos:station:DISL:MBLA:1,2008-04-02T10:03:00Z,30.4367,-88.0117,0.5,19.76,2 
DISL,ioos:station:DISL:MBLA:1,2008-04-02T10:05:00Z,30.4367,-88.0117,0.5,19.74,2 
DISL,ioos:station:DISL:MBLA:1,2008-04-02T10:07:00Z,30.4367,-88.0117,0.5,19.9,2 
DISL,ioos:station:DISL:MBLA:1,2008-04-02T10:10:00Z,30.4367,-88.0117,0.5,19.91,2 
DISL,ioos:station:DISL:MBLA:1,2008-04-02T10:12:00Z,30.4367,-88.0117,0.5,19.91,2 
DISL,ioos:station:DISL:MBLA:1,2008-04-02T10:15:00Z,30.4367,-88.0117,0.5,19.91,2 
DISL,ioos:station:DISL:MBLA:1,2008-04-02T11:03:00Z,30.4367,-88.0117,0.5,19.85,2 
DISL,ioos:station:DISL:MBLA:1,2008-04-02T11:05:00Z,30.4367,-88.0117,0.5,19.81,2 
DISL,ioos:station:DISL:MBLA:1,2008-04-02T11:07:00Z,30.4367,-88.0117,0.5,19.84,2 
DISL,ioos:station:DISL:MBLA:1,2008-04-02T11:10:00Z,30.4367,-88.0117,0.5,19.72,2 
DISL,ioos:station:DISL:MBLA:1,2008-04-02T11:12:00Z,30.4367,-88.0117,0.5,19.68,2 
DISL,ioos:station:DISL:MBLA:1,2008-04-02T11:15:00Z,30.4367,-88.0117,0.5,19.67,2 
DISL,ioos:station:DISL:MBLA:1,2008-04-02T12:02:00Z,30.4367,-88.0117,0.5,19.93,2 
DISL,ioos:station:DISL:MBLA:1,2008-04-02T12:05:00Z,30.4367,-88.0117,0.5,19.85,2 
DISL,ioos:station:DISL:MBLA:1,2008-04-02T12:07:00Z,30.4367,-88.0117,0.5,19.87,2 
DISL,ioos:station:DISL:MBLA:1,2008-04-02T12:10:00Z,30.4367,-88.0117,0.5,19.77,2 
DISL,ioos:station:DISL:MBLA:1,2008-04-02T12:12:00Z,30.4367,-88.0117,0.5,19.73,2 
DISL,ioos:station:DISL:MBLA:1,2008-04-02T12:15:00Z,30.4367,-88.0117,0.5,19.72,2 
DISL,ioos:station:DISL:MBLA:1,2008-04-02T13:03:00Z,30.4367,-88.0117,0.5,19.98,2 
DISL,ioos:station:DISL:MBLA:1,2008-04-02T13:05:00Z,30.4367,-88.0117,0.5,19.82,2 
DISL,ioos:station:DISL:MBLA:1,2008-04-02T13:07:00Z,30.4367,-88.0117,0.5,19.79,2 
DISL,ioos:station:DISL:MBLA:1,2008-04-02T13:10:00Z,30.4367,-88.0117,0.5,19.75,2 
DISL,ioos:station:DISL:MBLA:1,2008-04-02T13:12:00Z,30.4367,-88.0117,0.5,19.74,2 
DISL,ioos:station:DISL:MBLA:1,2008-04-02T13:15:00Z,30.4367,-88.0117,0.5,19.74,2 
DISL,ioos:station:DISL:MBLA:1,2008-04-02T14:03:00Z,30.4367,-88.0117,0.5,20.03,2 
DISL,ioos:station:DISL:MBLA:1,2008-04-02T14:05:00Z,30.4367,-88.0117,0.5,19.87,2 
DISL,ioos:station:DISL:MBLA:1,2008-04-02T14:07:00Z,30.4367,-88.0117,0.5,19.79,2 
DISL,ioos:station:DISL:MBLA:1,2008-04-02T14:10:00Z,30.4367,-88.0117,0.5,19.79,2 
DISL,ioos:station:DISL:MBLA:1,2008-04-02T14:13:00Z,30.4367,-88.0117,0.5,19.84,2 
DISL,ioos:station:DISL:MBLA:1,2008-04-02T14:15:00Z,30.4367,-88.0117,0.5,19.9,2 
DISL,ioos:station:DISL:MBLA:1,2008-04-02T15:02:00Z,30.4367,-88.0117,0.5,19.99,2 
DISL,ioos:station:DISL:MBLA:1,2008-04-02T15:05:00Z,30.4367,-88.0117,0.5,19.91,2 
DISL,ioos:station:DISL:MBLA:1,2008-04-02T15:07:00Z,30.4367,-88.0117,0.5,19.87,2 
DISL,ioos:station:DISL:MBLA:1,2008-04-02T15:10:00Z,30.4367,-88.0117,0.5,19.93,2 
DISL,ioos:station:DISL:MBLA:1,2008-04-02T15:13:00Z,30.4367,-88.0117,0.5,20.12,2 
DISL,ioos:station:DISL:MBLA:1,2008-04-02T15:15:00Z,30.4367,-88.0117,0.5,20.31,2 
DISL,ioos:station:DISL:MBLA:1,2008-04-02T16:02:00Z,30.4367,-88.0117,0.5,20.05,2 
DISL,ioos:station:DISL:MBLA:1,2008-04-02T16:05:00Z,30.4367,-88.0117,0.5,19.96,2 
DISL,ioos:station:DISL:MBLA:1,2008-04-02T16:08:00Z,30.4367,-88.0117,0.5,19.93,2 
DISL,ioos:station:DISL:MBLA:1,2008-04-02T16:10:00Z,30.4367,-88.0117,0.5,19.96,2 
DISL,ioos:station:DISL:MBLA:1,2008-04-02T16:13:00Z,30.4367,-88.0117,0.5,20.15,2 
DISL,ioos:station:DISL:MBLA:1,2008-04-02T16:16:00Z,30.4367,-88.0117,0.5,20.63,2 
DISL,ioos:station:DISL:MBLA:1,2008-04-02T17:03:00Z,30.4367,-88.0117,0.5,20.01,2 
DISL,ioos:station:DISL:MBLA:1,2008-04-02T17:05:00Z,30.4367,-88.0117,0.5,20.04,2 
DISL,ioos:station:DISL:MBLA:1,2008-04-02T17:08:00Z,30.4367,-88.0117,0.5,20.06,2 
DISL,ioos:station:DISL:MBLA:1,2008-04-02T17:10:00Z,30.4367,-88.0117,0.5,20.17,2 
DISL,ioos:station:DISL:MBLA:1,2008-04-02T17:13:00Z,30.4367,-88.0117,0.5,20.62,2 
DISL,ioos:station:DISL:MBLA:1,2008-04-02T17:15:00Z,30.4367,-88.0117,0.5,21.46,2 
DISL,ioos:station:DISL:MBLA:1,2008-04-02T18:02:00Z,30.4367,-88.0117,0.5,20.06,2 
DISL,ioos:station:DISL:MBLA:1,2008-04-02T18:05:00Z,30.4367,-88.0117,0.5,20.08,2 
DISL,ioos:station:DISL:MBLA:1,2008-04-02T18:08:00Z,30.4367,-88.0117,0.5,20.23,2 
DISL,ioos:station:DISL:MBLA:1,2008-04-02T18:10:00Z,30.4367,-88.0117,0.5,20.43,2 
DISL,ioos:station:DISL:MBLA:1,2008-04-02T18:13:00Z,30.4367,-88.0117,0.5,20.79,2 
DISL,ioos:station:DISL:MBLA:1,2008-04-02T18:16:00Z,30.4367,-88.0117,0.5,21.45,2 
DISL,ioos:station:DISL:MBLA:1,2008-04-02T19:02:00Z,30.4367,-88.0117,0.5,20.04,2 
DISL,ioos:station:DISL:MBLA:1,2008-04-02T19:05:00Z,30.4367,-88.0117,0.5,20.08,2 
DISL,ioos:station:DISL:MBLA:1,2008-04-02T19:08:00Z,30.4367,-88.0117,0.5,20.15,2 
DISL,ioos:station:DISL:MBLA:1,2008-04-02T19:10:00Z,30.4367,-88.0117,0.5,20.66,2 
DISL,ioos:station:DISL:MBLA:1,2008-04-02T19:13:00Z,30.4367,-88.0117,0.5,21.31,2 
DISL,ioos:station:DISL:MBLA:1,2008-04-02T19:15:00Z,30.4367,-88.0117,0.5,21.49,2 
DISL,ioos:station:DISL:MBLA:1,2008-04-02T20:02:00Z,30.4367,-88.0117,0.5,20.1,2 
DISL,ioos:station:DISL:MBLA:1,2008-04-02T20:05:00Z,30.4367,-88.0117,0.5,20.46,2 
DISL,ioos:station:DISL:MBLA:1,2008-04-02T20:08:00Z,30.4367,-88.0117,0.5,20.76,2 
DISL,ioos:station:DISL:MBLA:1,2008-04-02T20:10:00Z,30.4367,-88.0117,0.5,21.16,2 
DISL,ioos:station:DISL:MBLA:1,2008-04-02T20:13:00Z,30.4367,-88.0117,0.5,21.28,2 
DISL,ioos:station:DISL:MBLA:1,2008-04-02T20:15:00Z,30.4367,-88.0117,0.5,21.41,2 
DISL,ioos:station:DISL:MBLA:1,2008-04-02T21:02:00Z,30.4367,-88.0117,0.5,20.11,2 
DISL,ioos:station:DISL:MBLA:1,2008-04-02T21:05:00Z,30.4367,-88.0117,0.5,20.32,2 
DISL,ioos:station:DISL:MBLA:1,2008-04-02T21:08:00Z,30.4367,-88.0117,0.5,20.72,2 
DISL,ioos:station:DISL:MBLA:1,2008-04-02T21:10:00Z,30.4367,-88.0117,0.5,21.2,2 
DISL,ioos:station:DISL:MBLA:1,2008-04-02T21:13:00Z,30.4367,-88.0117,0.5,21.59,2 
DISL,ioos:station:DISL:MBLA:1,2008-04-02T21:15:00Z,30.4367,-88.0117,0.5,21.68,2 
DISL,ioos:station:DISL:MBLA:1,2008-04-02T22:02:00Z,30.4367,-88.0117,0.5,20.1,2 
DISL,ioos:station:DISL:MBLA:1,2008-04-02T22:05:00Z,30.4367,-88.0117,0.5,20.19,2 
DISL,ioos:station:DISL:MBLA:1,2008-04-02T22:08:00Z,30.4367,-88.0117,0.5,20.34,2 
DISL,ioos:station:DISL:MBLA:1,2008-04-02T22:10:00Z,30.4367,-88.0117,0.5,21.5,2 
DISL,ioos:station:DISL:MBLA:1,2008-04-02T22:13:00Z,30.4367,-88.0117,0.5,21.66,2 
DISL,ioos:station:DISL:MBLA:1,2008-04-02T22:15:00Z,30.4367,-88.0117,0.5,21.75,2 
DISL,ioos:station:DISL:MBLA:1,2008-04-02T23:03:00Z,30.4367,-88.0117,0.5,19.99,2 
DISL,ioos:station:DISL:MBLA:1,2008-04-02T23:05:00Z,30.4367,-88.0117,0.5,20.74,2 
DISL,ioos:station:DISL:MBLA:1,2008-04-02T23:07:00Z,30.4367,-88.0117,0.5,21.17,2 
DISL,ioos:station:DISL:MBLA:1,2008-04-02T23:10:00Z,30.4367,-88.0117,0.5,21.37,2 
DISL,ioos:station:DISL:MBLA:1,2008-04-02T23:13:00Z,30.4367,-88.0117,0.5,21.47,2 
DISL,ioos:station:DISL:MBLA:1,2008-04-02T23:15:00Z,30.4367,-88.0117,0.5,21.49,2 
DISL,ioos:station:DISL:MBLA:1,2008-04-03T00:02:00Z,30.4367,-88.0117,0.5,20.68,2 
DISL,ioos:station:DISL:MBLA:1,2008-04-03T00:05:00Z,30.4367,-88.0117,0.5,20.58,2 
DISL,ioos:station:DISL:MBLA:1,2008-04-03T00:08:00Z,30.4367,-88.0117,0.5,20.86,2 
DISL,ioos:station:DISL:MBLA:1,2008-04-03T00:10:00Z,30.4367,-88.0117,0.5,21.19,2 
DISL,ioos:station:DISL:MBLA:1,2008-04-03T00:13:00Z,30.4367,-88.0117,0.5,21.33,2 
DISL,ioos:station:DISL:MBLA:1,2008-04-03T00:15:00Z,30.4367,-88.0117,0.5,21.4,2 
DISL,ioos:station:DISL:MBLA:1,2008-04-03T01:03:00Z,30.4367,-88.0117,0.5,20.45,2 